Regional Weather Roundup
Issued by NWS

Home | Current Version | Previous Version | Text Only | Print | Product List | Glossary Off
Versions: 1 2 3 4 5 6 7 8 9 10 11 12 13 14 15 16 17 18 19 20 21 22 23 24 25 26 27 28 29 30 31 32 33 34 35 36 37 38 39 40 41 42 43 44 45 46 47 48 49 50

000
ASUS43 KFSD 050310
RWRSD

WEATHER ROUNDUP FOR SOUTH DAKOTA
NATIONAL WEATHER SERVICE SIOUX FALLS SD
1000 PM CDT TUE AUG 04 2015

NOTE: "FAIR" INDICATES FEW OR NO CLOUDS BELOW 12,000 FEET WITH NO
SIGNIFICANT WEATHER AND/OR OBSTRUCTIONS TO VISIBILITY.


SDZ001>005-009-010-012>017-050400-
NORTHWEST AND NORTH CENTRAL SOUTH DAKOTA

CITY           SKY/WX    TMP DP  RH WIND       PRES   REMARKS
BUFFALO          N/A     64  58  80 W23G31    29.94R
FAITH            N/A     74  53  48 SE15      29.96S
MOBRIDGE       PTCLDY    71  62  73 SE8       29.96R
$$

SDZ012>016-024>037-041>051-057-063-072>074-050400-
SOUTHWEST AND SOUTH CENTRAL SOUTH DAKOTA

CITY           SKY/WX    TMP DP  RH WIND       PRES   REMARKS
RAPID CTY ARPT CLOUDY    71  60  68 E3        29.97R
PIERRE         CLOUDY    74  60  61 SE10      29.95R
CUSTER         CLOUDY    64  53  67 NW3       30.12R
ELLSWORTH AFB  CLOUDY    74  59  60 S6        29.97R
PHILIP         CLOUDY    73  65  75 E8        29.95S
PINE RIDGE     PTCLDY    67  60  78 E6        30.00R
WINNER         FAIR      71  64  78 SE5       29.98R
$$

SDZ004>011-016>023-039-040-050400-
NORTHEAST SOUTH DAKOTA

CITY           SKY/WX    TMP DP  RH WIND       PRES   REMARKS
ABERDEEN       PTCLDY    70  56  61 E7        29.98R
WATERTOWN      PTCLDY    70  54  56 E6        30.02R
BROOKINGS      CLEAR     70  57  64 E7        30.03S
SISSETON         N/A     63  56  78 CALM      30.00R
$$

SDZ017-020-022-023-036>040-048>070-050400-
SOUTHEAST SOUTH DAKOTA

CITY           SKY/WX    TMP DP  RH WIND       PRES   REMARKS
SIOUX FALLS    MOCLDY    69  62  78 E8        30.00R
HURON          MOCLDY    71  61  70 SE7       29.97R
CHAMBERLAIN    PTCLDY    69  64  83 E7        29.97R
MITCHELL       MOCLDY    69  65  86 E7        29.99R
YANKTON        CLOUDY    70  64  83 E7        29.98R
$$

ABBREVIATIONS USED IN REMARKS
   TC - TEMPERATURE IN CELSIUS
  WCI - WIND CHILL INDEX
   HX - HEAT INDEX
  VSB - VISIBILITY




USA.gov is the U.S. government's official web portal to all federal, state and local government web resources and services.